{"data":{"norad_id":59718,"intl_designator":"2024-088L","name":"STARLINK-11103 [DTC]","alt_names":[],"object_type":"PAYLOAD","status":"ACTIVE","operator":null,"country":"US","launch_date":"2024-05-10","launch_site_code":"AFWTR","launch_vehicle":null,"mission":null,"orbit_class":"UNKNOWN","rcs_meters":null,"size_class":null,"mass_kg":null,"dimensions":null,"purposes":["comms"],"wikipedia_slug":null,"has_3d_model":false,"image_url":null,"decayed_at":null,"tle_current":{"epoch":"2026-05-24T18:22:52.425120Z","epoch_age_seconds":98844,"freshness":"FRESH","line1":"1 59718U 24088L   26144.76588455  .00000259  00000+0  69871-5 0  9998","line2":"2 59718  53.1582 311.0356 0000620  74.9450 285.1637 15.69709098118222","mean_motion":15.69709098,"eccentricity":6.2e-5,"inclination_deg":53.1582,"raan_deg":311.0356,"arg_perigee_deg":74.945,"mean_anomaly_deg":285.1637,"bstar":6.9871e-6,"rev_number":11822,"period_min":91.736742931205,"perigee_km":359.31158388719,"apogee_km":360.14707931231,"semimajor_km":6737.8663315997,"source":"CELESTRAK","updated_at":"2026-05-25T13:38:19.047808Z"}}}